XAOSS KSAN-KLAS

Flight info

Callsign XAOSS
Flight time 1h 16m
Altitude 21000
Route CWARD2 LAX DCT DAG CRESO5
Aircraft SF50/L-SBGRY/C

Departure

Time 2026-05-06 08:11
Airport San Diego International Airport (KSAN)

Arrival

Time 2026-05-06 09:27
Airport Harry Reid International Airport (KLAS)
Time Latitude Longitude Altitude Speed Heading
2026-05-06 06:48 32.73359 -117.17885 23 ft 0 kts 17°
2026-05-06 08:06 32.73365 -117.17886 23 ft 2 kts 341°
2026-05-06 08:07 32.73372 -117.17911 22 ft 4 kts 253°
2026-05-06 08:07 32.73357 -117.17947 21 ft 4 kts 229°
2026-05-06 08:07 32.73336 -117.17959 21 ft 3 kts 199°
2026-05-06 08:07 32.73303 -117.17971 20 ft 6 kts 195°
2026-05-06 08:08 32.73259 -117.17982 20 ft 6 kts 174°
2026-05-06 08:08 32.73226 -117.17952 20 ft 6 kts 108°
2026-05-06 08:08 32.73212 -117.17900 20 ft 7 kts 107°
2026-05-06 08:08 32.73196 -117.17834 20 ft 8 kts 107°
2026-05-06 08:09 32.73179 -117.17762 21 ft 9 kts 108°
2026-05-06 08:09 32.73163 -117.17701 22 ft 6 kts 108°
2026-05-06 08:09 32.73157 -117.17673 23 ft 3 kts 102°
2026-05-06 08:09 32.73145 -117.17621 23 ft 7 kts 109°
2026-05-06 08:10 32.73122 -117.17578 24 ft 5 kts 143°
2026-05-06 08:10 32.73102 -117.17561 24 ft 2 kts 147°
2026-05-06 08:10 32.73058 -117.17541 23 ft 10 kts 198°
2026-05-06 08:10 32.73035 -117.17640 23 ft 17 kts 283°
2026-05-06 08:11 32.73127 -117.18051 18 ft 85 kts 285°
2026-05-06 08:11 32.73337 -117.18923 38 ft 130 kts 285°
2026-05-06 08:11 32.73645 -117.20027 420 ft 153 kts 287°
2026-05-06 08:11 32.74077 -117.21281 873 ft 179 kts 305°
2026-05-06 08:12 32.74853 -117.22503 1455 ft 191 kts 303°
2026-05-06 08:12 32.75603 -117.23820 2090 ft 199 kts 301°
2026-05-06 08:12 32.76357 -117.25199 2751 ft 203 kts 301°
2026-05-06 08:12 32.77120 -117.26608 3428 ft 205 kts 301°
2026-05-06 08:13 32.77890 -117.28034 4113 ft 207 kts 301°
2026-05-06 08:13 32.78659 -117.29465 4797 ft 207 kts 301°
2026-05-06 08:13 32.79422 -117.30884 5478 ft 206 kts 301°
2026-05-06 08:13 32.80239 -117.32251 6156 ft 205 kts 305°
2026-05-06 08:14 32.81099 -117.33595 6827 ft 204 kts 305°
2026-05-06 08:14 32.81943 -117.34904 7482 ft 202 kts 304°
2026-05-06 08:14 32.82802 -117.36232 8136 ft 201 kts 304°
2026-05-06 08:14 32.83641 -117.37535 8774 ft 200 kts 303°
2026-05-06 08:15 32.84478 -117.38833 9398 ft 199 kts 303°
2026-05-06 08:15 32.85311 -117.40121 10016 ft 197 kts 302°
2026-05-06 08:15 32.86134 -117.41405 10616 ft 196 kts 302°
2026-05-06 08:15 32.86957 -117.42683 11196 ft 196 kts 302°
2026-05-06 08:16 32.87779 -117.43955 11770 ft 195 kts 302°
2026-05-06 08:16 32.88590 -117.45219 12325 ft 194 kts 302°
2026-05-06 08:16 32.89411 -117.46493 12879 ft 194 kts 302°
2026-05-06 08:16 32.90219 -117.47750 13457 ft 193 kts 302°
2026-05-06 08:17 32.91027 -117.49009 13969 ft 193 kts 301°
2026-05-06 08:17 32.91839 -117.50267 14492 ft 192 kts 301°
2026-05-06 08:17 32.92650 -117.51527 15030 ft 192 kts 301°
2026-05-06 08:17 32.93446 -117.52764 15553 ft 191 kts 300°
2026-05-06 08:18 32.94251 -117.54020 16060 ft 190 kts 300°
2026-05-06 08:18 32.95042 -117.55252 16551 ft 189 kts 300°
2026-05-06 08:18 32.95834 -117.56491 17038 ft 188 kts 299°
2026-05-06 08:18 32.96621 -117.57714 17512 ft 187 kts 300°
2026-05-06 08:19 32.97401 -117.58935 17972 ft 186 kts 299°
2026-05-06 08:19 32.98183 -117.60153 18419 ft 186 kts 298°
2026-05-06 08:19 32.98968 -117.61372 18871 ft 185 kts 297°
2026-05-06 08:19 32.99738 -117.62574 19325 ft 183 kts 297°
2026-05-06 08:20 33.00507 -117.63774 19769 ft 182 kts 296°
2026-05-06 08:20 33.01262 -117.64956 20208 ft 181 kts 295°
2026-05-06 08:20 33.02030 -117.66151 20661 ft 180 kts 294°
2026-05-06 08:20 33.02777 -117.67315 21088 ft 178 kts 293°
2026-05-06 08:21 33.03522 -117.68484 21529 ft 176 kts 292°
2026-05-06 08:21 33.04254 -117.69625 21952 ft 174 kts 292°
2026-05-06 08:21 33.04983 -117.70761 22359 ft 173 kts 291°
2026-05-06 08:21 33.05710 -117.71902 22751 ft 172 kts 291°
2026-05-06 08:22 33.06469 -117.73003 23142 ft 180 kts 301°
2026-05-06 08:22 33.07415 -117.73969 23511 ft 180 kts 301°
2026-05-06 08:22 33.08360 -117.74929 23868 ft 178 kts 299°
2026-05-06 08:22 33.09298 -117.75890 24212 ft 177 kts 298°
2026-05-06 08:23 33.10234 -117.76843 24530 ft 177 kts 298°
2026-05-06 08:23 33.11172 -117.77796 24821 ft 177 kts 297°
2026-05-06 08:23 33.12090 -117.78735 25108 ft 176 kts 296°
2026-05-06 08:23 33.13027 -117.79692 25377 ft 176 kts 296°
2026-05-06 08:24 33.13965 -117.80643 25635 ft 176 kts 295°
2026-05-06 08:24 33.14890 -117.81587 25904 ft 176 kts 295°
2026-05-06 08:24 33.15830 -117.82545 26146 ft 177 kts 294°
2026-05-06 08:24 33.16752 -117.83487 26377 ft 178 kts 293°
2026-05-06 08:25 33.17696 -117.84447 26633 ft 177 kts 292°
2026-05-06 08:25 33.18630 -117.85400 26875 ft 177 kts 292°
2026-05-06 08:25 33.19566 -117.86343 27105 ft 178 kts 292°
2026-05-06 08:25 33.20521 -117.87277 27327 ft 178 kts 292°
2026-05-06 08:26 33.21484 -117.88211 27552 ft 177 kts 291°
2026-05-06 08:26 33.22429 -117.89135 27768 ft 177 kts 291°
2026-05-06 08:26 33.23389 -117.90067 27982 ft 176 kts 290°
2026-05-06 08:26 33.24334 -117.90987 28189 ft 176 kts 289°
2026-05-06 08:27 33.25282 -117.91914 28364 ft 176 kts 289°
2026-05-06 08:27 33.26224 -117.92838 28559 ft 176 kts 288°
2026-05-06 08:27 33.27183 -117.93776 28742 ft 176 kts 288°
2026-05-06 08:27 33.28124 -117.94692 28921 ft 177 kts 288°
2026-05-06 08:28 33.29083 -117.95631 29106 ft 176 kts 287°
2026-05-06 08:28 33.30022 -117.96551 29278 ft 175 kts 285°
2026-05-06 08:28 33.30973 -117.97478 29456 ft 175 kts 286°
2026-05-06 08:28 33.31916 -117.98400 29606 ft 175 kts 285°
2026-05-06 08:29 33.32854 -117.99320 29746 ft 176 kts 285°
2026-05-06 08:29 33.33794 -118.00243 29900 ft 175 kts 285°
2026-05-06 08:29 33.34732 -118.01162 30019 ft 177 kts 285°
2026-05-06 08:29 33.35737 -118.02188 29829 ft 202 kts 289°
2026-05-06 08:30 33.36880 -118.03333 29647 ft 228 kts 293°
2026-05-06 08:30 33.38182 -118.04614 29460 ft 250 kts 296°
2026-05-06 08:30 33.39571 -118.05968 29253 ft 269 kts 298°
2026-05-06 08:30 33.41073 -118.07431 29037 ft 285 kts 300°
2026-05-06 08:31 33.42634 -118.08946 28325 ft 308 kts 301°
2026-05-06 08:31 33.44150 -118.10391 28527 ft 252 kts 304°
2026-05-06 08:31 33.45445 -118.11509 27966 ft 220 kts 296°
2026-05-06 08:31 33.46533 -118.12633 27327 ft 201 kts 295°
2026-05-06 08:32 33.47526 -118.13650 26956 ft 178 kts 293°
2026-05-06 08:32 33.48438 -118.14683 25475 ft 208 kts 295°
2026-05-06 08:32 33.49358 -118.15974 24006 ft 216 kts 296°
2026-05-06 08:32 33.50260 -118.17340 22193 ft 228 kts 298°
2026-05-06 08:33 33.51575 -118.18375 20227 ft 254 kts 332°
2026-05-06 08:33 33.53201 -118.18909 18721 ft 240 kts 335°
2026-05-06 08:33 33.54705 -118.19469 17743 ft 210 kts 329°
2026-05-06 08:33 33.55374 -118.20435 18297 ft 107 kts 280°
2026-05-06 08:34 33.55495 -118.21283 17807 ft 118 kts 258°
2026-05-06 08:34 33.55053 -118.23183 16707 ft 127 kts 270°
2026-05-06 08:34 33.55553 -118.24088 16168 ft 145 kts 315°
2026-05-06 08:35 33.56559 -118.24459 15654 ft 152 kts 338°
2026-05-06 08:35 33.57590 -118.24626 15192 ft 151 kts 343°
2026-05-06 08:35 33.58604 -118.24856 14748 ft 145 kts 337°
2026-05-06 08:35 33.59557 -118.25163 14236 ft 142 kts 334°
2026-05-06 08:36 33.60490 -118.25533 13740 ft 142 kts 333°
2026-05-06 08:36 33.61400 -118.25932 13287 ft 139 kts 331°
2026-05-06 08:36 33.62290 -118.26354 12819 ft 139 kts 329°
2026-05-06 08:36 33.63173 -118.26794 12365 ft 137 kts 329°
2026-05-06 08:37 33.64044 -118.27239 11917 ft 136 kts 329°
2026-05-06 08:37 33.64909 -118.27692 11447 ft 137 kts 329°
2026-05-06 08:37 33.65757 -118.28144 11023 ft 134 kts 328°
2026-05-06 08:37 33.66606 -118.28599 10563 ft 134 kts 328°
2026-05-06 08:38 33.67380 -118.29017 10568 ft 116 kts 328°
2026-05-06 08:38 33.68126 -118.29424 10831 ft 120 kts 327°
2026-05-06 08:38 33.68907 -118.29848 11090 ft 124 kts 327°
2026-05-06 08:38 33.69704 -118.30287 11340 ft 127 kts 328°
2026-05-06 08:39 33.70508 -118.30733 11589 ft 130 kts 328°
2026-05-06 08:39 33.71339 -118.31190 11835 ft 132 kts 327°
2026-05-06 08:39 33.72179 -118.31647 12088 ft 133 kts 327°
2026-05-06 08:39 33.73018 -118.32114 12332 ft 134 kts 326°
2026-05-06 08:40 33.73862 -118.32577 12579 ft 134 kts 326°
2026-05-06 08:40 33.74714 -118.33046 12823 ft 134 kts 326°
2026-05-06 08:40 33.75613 -118.33289 13028 ft 138 kts 360°
2026-05-06 08:40 33.76429 -118.32659 13168 ft 152 kts 57°
2026-05-06 08:41 33.76414 -118.31473 13276 ft 147 kts 131°
2026-05-06 08:41 33.75485 -118.31094 12657 ft 179 kts 193°
2026-05-06 08:41 33.74334 -118.32089 11582 ft 239 kts 244°
2026-05-06 08:41 33.74285 -118.33593 13374 ft 176 kts 279°
2026-05-06 08:42 33.75078 -118.34847 13504 ft 210 kts 326°
2026-05-06 08:42 33.76595 -118.35101 13790 ft 237 kts
2026-05-06 08:42 33.78085 -118.34148 14061 ft 253 kts 33°
2026-05-06 08:42 33.79494 -118.32735 13974 ft 278 kts 41°
2026-05-06 08:43 33.80888 -118.31104 14234 ft 282 kts 44°
2026-05-06 08:43 33.82251 -118.29398 14485 ft 286 kts 45°
2026-05-06 08:43 33.83622 -118.27619 14738 ft 289 kts 46°
2026-05-06 08:43 33.84967 -118.25848 14978 ft 291 kts 46°
2026-05-06 08:44 33.86338 -118.24030 15225 ft 293 kts 46°
2026-05-06 08:44 33.87712 -118.22201 15477 ft 294 kts 46°
2026-05-06 08:44 33.89090 -118.20383 15719 ft 295 kts 43°
2026-05-06 08:44 33.90853 -118.19305 15951 ft 286 kts
2026-05-06 08:45 33.92760 -118.19569 16202 ft 273 kts 331°
2026-05-06 08:45 33.94158 -118.21011 16465 ft 259 kts 300°
2026-05-06 08:45 33.95528 -118.22412 16701 ft 275 kts 334°
2026-05-06 08:45 33.97459 -118.22598 16955 ft 289 kts
2026-05-06 08:46 33.99252 -118.21461 17216 ft 297 kts 43°
2026-05-06 08:46 34.00552 -118.19528 17482 ft 298 kts 51°
2026-05-06 08:46 34.01842 -118.17593 17733 ft 298 kts 50°
2026-05-06 08:46 34.03170 -118.15668 17975 ft 299 kts 49°
2026-05-06 08:47 34.04514 -118.13749 18229 ft 299 kts 49°
2026-05-06 08:47 34.05866 -118.11838 18487 ft 300 kts 49°
2026-05-06 08:47 34.07231 -118.09912 18743 ft 300 kts 49°
2026-05-06 08:47 34.08584 -118.08005 18990 ft 301 kts 49°
2026-05-06 08:48 34.09932 -118.06107 19244 ft 301 kts 49°
2026-05-06 08:48 34.11297 -118.04179 19488 ft 302 kts 49°
2026-05-06 08:48 34.12670 -118.02247 19739 ft 302 kts 49°
2026-05-06 08:48 34.14030 -118.00324 19992 ft 302 kts 49°
2026-05-06 08:49 34.15395 -117.98403 20240 ft 303 kts 49°
2026-05-06 08:49 34.16758 -117.96476 20487 ft 304 kts 49°
2026-05-06 08:49 34.18136 -117.94524 20740 ft 305 kts 49°
2026-05-06 08:49 34.19516 -117.92572 20843 ft 310 kts 49°
2026-05-06 08:50 34.20935 -117.90566 20857 ft 318 kts 49°
2026-05-06 08:50 34.22392 -117.88507 20868 ft 325 kts 49°
2026-05-06 08:50 34.23872 -117.86409 20871 ft 330 kts 49°
2026-05-06 08:50 34.25363 -117.84296 20867 ft 334 kts 49°
2026-05-06 08:51 34.26883 -117.82145 20875 ft 337 kts 49°
2026-05-06 08:51 34.28387 -117.80005 20870 ft 339 kts 49°
2026-05-06 08:51 34.29933 -117.77808 20864 ft 341 kts 49°
2026-05-06 08:51 34.31467 -117.75631 20872 ft 342 kts 49°
2026-05-06 08:52 34.33008 -117.73443 20853 ft 343 kts 49°
2026-05-06 08:52 34.34553 -117.71240 20864 ft 344 kts 49°
2026-05-06 08:52 34.36102 -117.69034 20841 ft 346 kts 48°
2026-05-06 08:52 34.37662 -117.66819 20830 ft 345 kts 49°
2026-05-06 08:53 34.39211 -117.64603 20825 ft 346 kts 49°
2026-05-06 08:53 34.40767 -117.62385 20822 ft 346 kts 49°
2026-05-06 08:53 34.42326 -117.60160 20820 ft 346 kts 49°
2026-05-06 08:53 34.43881 -117.57942 20814 ft 346 kts 49°
2026-05-06 08:54 34.45431 -117.55727 20802 ft 346 kts 49°
2026-05-06 08:54 34.46975 -117.53521 20812 ft 345 kts 49°
2026-05-06 08:54 34.48523 -117.51304 20817 ft 345 kts 49°
2026-05-06 08:54 34.50089 -117.49058 20823 ft 345 kts 49°
2026-05-06 08:55 34.51624 -117.46867 20818 ft 345 kts 49°
2026-05-06 08:55 34.53177 -117.44641 20841 ft 344 kts 49°
2026-05-06 08:55 34.54715 -117.42430 20850 ft 344 kts 49°
2026-05-06 08:55 34.56267 -117.40202 20850 ft 345 kts 49°
2026-05-06 08:56 34.57811 -117.37983 20851 ft 346 kts 49°
2026-05-06 08:56 34.59369 -117.35752 20852 ft 347 kts 49°
2026-05-06 08:56 34.60921 -117.33521 20847 ft 347 kts 49°
2026-05-06 08:56 34.62465 -117.31293 20856 ft 347 kts 49°
2026-05-06 08:57 34.64039 -117.29034 20844 ft 348 kts 49°
2026-05-06 08:57 34.65578 -117.26809 20833 ft 348 kts 49°
2026-05-06 08:57 34.67139 -117.24559 20824 ft 348 kts 50°
2026-05-06 08:57 34.68693 -117.22317 20805 ft 349 kts 49°
2026-05-06 08:58 34.70268 -117.20049 20801 ft 349 kts 49°
2026-05-06 08:58 34.71822 -117.17803 20799 ft 349 kts 50°
2026-05-06 08:58 34.73380 -117.15551 20794 ft 349 kts 49°
2026-05-06 08:58 34.74935 -117.13306 20791 ft 349 kts 50°
2026-05-06 08:59 34.76493 -117.11048 20796 ft 348 kts 50°
2026-05-06 08:59 34.78067 -117.08770 20795 ft 348 kts 49°
2026-05-06 08:59 34.79612 -117.06525 20791 ft 348 kts 50°
2026-05-06 08:59 34.81161 -117.04282 20798 ft 348 kts 50°
2026-05-06 09:00 34.82710 -117.02033 20802 ft 347 kts 49°
2026-05-06 09:00 34.84272 -116.99766 20787 ft 348 kts 50°
2026-05-06 09:00 34.85819 -116.97518 20755 ft 349 kts 49°
2026-05-06 09:00 34.87381 -116.95258 20757 ft 348 kts 50°
2026-05-06 09:01 34.88946 -116.93018 20773 ft 348 kts 49°
2026-05-06 09:01 34.90530 -116.90780 20766 ft 348 kts 49°
2026-05-06 09:01 34.92125 -116.88545 20748 ft 349 kts 48°
2026-05-06 09:01 34.93715 -116.86329 20750 ft 349 kts 48°
2026-05-06 09:02 34.95313 -116.84106 20742 ft 350 kts 48°
2026-05-06 09:02 34.96901 -116.81860 20761 ft 349 kts 49°
2026-05-06 09:02 34.98464 -116.79584 20806 ft 348 kts 50°
2026-05-06 09:02 34.99965 -116.77321 20811 ft 348 kts 51°
2026-05-06 09:03 35.01460 -116.74983 20761 ft 351 kts 52°
2026-05-06 09:03 35.02937 -116.72604 20775 ft 350 kts 53°
2026-05-06 09:03 35.04382 -116.70229 20886 ft 347 kts 53°
2026-05-06 09:03 35.05801 -116.67866 20905 ft 347 kts 53°
2026-05-06 09:04 35.07226 -116.65475 20833 ft 350 kts 54°
2026-05-06 09:04 35.08654 -116.63071 20840 ft 350 kts 54°
2026-05-06 09:04 35.10088 -116.60667 20895 ft 348 kts 53°
2026-05-06 09:04 35.11517 -116.58302 20956 ft 346 kts 53°
2026-05-06 09:05 35.12949 -116.55970 20884 ft 349 kts 52°
2026-05-06 09:05 35.14429 -116.53586 20798 ft 351 kts 52°
2026-05-06 09:05 35.15904 -116.51240 20937 ft 346 kts 52°
2026-05-06 09:05 35.17370 -116.48929 20941 ft 346 kts 52°
2026-05-06 09:06 35.18854 -116.46610 20829 ft 350 kts 52°
2026-05-06 09:06 35.20361 -116.44284 20838 ft 349 kts 51°
2026-05-06 09:06 35.21870 -116.41986 20940 ft 346 kts 50°
2026-05-06 09:06 35.23393 -116.39695 20908 ft 348 kts 50°
2026-05-06 09:07 35.24926 -116.37406 20843 ft 350 kts 50°
2026-05-06 09:07 35.26448 -116.35114 20938 ft 347 kts 51°
2026-05-06 09:07 35.27947 -116.32817 21000 ft 344 kts 52°
2026-05-06 09:07 35.29447 -116.30489 20896 ft 348 kts 53°
2026-05-06 09:08 35.30922 -116.28150 20859 ft 349 kts 53°
2026-05-06 09:08 35.32368 -116.25793 20952 ft 345 kts 54°
2026-05-06 09:08 35.33804 -116.23423 20931 ft 346 kts 54°
2026-05-06 09:08 35.35245 -116.21053 20863 ft 348 kts 54°
2026-05-06 09:09 35.36677 -116.18717 20918 ft 346 kts 53°
2026-05-06 09:09 35.38122 -116.16389 20988 ft 343 kts 53°
2026-05-06 09:09 35.39590 -116.14068 20909 ft 346 kts 52°
2026-05-06 09:09 35.41098 -116.11731 20829 ft 349 kts 52°
2026-05-06 09:10 35.42617 -116.09425 20869 ft 347 kts 51°
2026-05-06 09:10 35.44157 -116.07152 20894 ft 346 kts 50°
2026-05-06 09:10 35.45723 -116.04906 20848 ft 348 kts 49°
2026-05-06 09:10 35.47300 -116.02697 20832 ft 348 kts 48°
2026-05-06 09:11 35.48944 -116.00481 20857 ft 348 kts 47°
2026-05-06 09:11 35.50592 -115.98313 20831 ft 349 kts 46°
2026-05-06 09:11 35.52237 -115.96162 20797 ft 350 kts 47°
2026-05-06 09:11 35.53873 -115.93958 20821 ft 349 kts 48°
2026-05-06 09:12 35.55469 -115.91715 20806 ft 350 kts 50°
2026-05-06 09:12 35.57033 -115.89414 20787 ft 350 kts 51°
2026-05-06 09:12 35.58556 -115.87064 20884 ft 347 kts 52°
2026-05-06 09:12 35.60003 -115.84703 20848 ft 349 kts 55°
2026-05-06 09:13 35.61426 -115.82273 20766 ft 351 kts 56°
2026-05-06 09:13 35.62804 -115.79840 20870 ft 347 kts 57°
2026-05-06 09:13 35.64153 -115.77393 20851 ft 349 kts 57°
2026-05-06 09:13 35.65522 -115.74899 20775 ft 351 kts 57°
2026-05-06 09:14 35.66886 -115.72444 20867 ft 341 kts 56°
2026-05-06 09:14 35.68176 -115.70190 20953 ft 310 kts 54°
2026-05-06 09:14 35.69458 -115.68044 19943 ft 325 kts 53°
2026-05-06 09:14 35.70851 -115.65823 18783 ft 335 kts 51°
2026-05-06 09:15 35.72258 -115.63699 18505 ft 305 kts 50°
2026-05-06 09:15 35.73586 -115.61781 17894 ft 295 kts 49°
2026-05-06 09:15 35.74968 -115.59869 16681 ft 310 kts 47°
2026-05-06 09:15 35.76453 -115.57906 15793 ft 310 kts 46°
2026-05-06 09:16 35.77879 -115.56089 15536 ft 289 kts 45°
2026-05-06 09:16 35.79294 -115.54340 14870 ft 288 kts 44°
2026-05-06 09:16 35.80731 -115.52632 13956 ft 294 kts 43°
2026-05-06 09:16 35.82209 -115.50916 13356 ft 286 kts 43°
2026-05-06 09:17 35.83615 -115.49268 12799 ft 279 kts 44°
2026-05-06 09:17 35.84995 -115.47616 12090 ft 277 kts 45°
2026-05-06 09:17 35.86341 -115.45932 11325 ft 277 kts 47°
2026-05-06 09:17 35.87646 -115.44233 10646 ft 273 kts 49°
2026-05-06 09:18 35.88918 -115.42528 10011 ft 267 kts 50°
2026-05-06 09:18 35.90155 -115.40844 9373 ft 265 kts 51°
2026-05-06 09:18 35.91363 -115.39129 8571 ft 267 kts 52°
2026-05-06 09:18 35.92545 -115.37374 7827 ft 268 kts 52°
2026-05-06 09:19 35.93700 -115.35606 7118 ft 268 kts 52°
2026-05-06 09:19 35.94826 -115.33790 6366 ft 270 kts 54°
2026-05-06 09:19 35.95923 -115.31908 5685 ft 268 kts 56°
2026-05-06 09:19 35.96912 -115.29978 5052 ft 264 kts 61°
2026-05-06 09:20 35.97750 -115.28024 4396 ft 262 kts 66°
2026-05-06 09:20 35.98401 -115.25932 3680 ft 264 kts 74°
2026-05-06 09:20 35.98936 -115.23737 3078 ft 273 kts 70°
2026-05-06 09:20 35.99530 -115.21640 3365 ft 247 kts 76°
2026-05-06 09:21 36.00017 -115.19666 3379 ft 243 kts 70°
2026-05-06 09:21 36.00774 -115.17732 3187 ft 248 kts 67°
2026-05-06 09:21 36.01178 -115.15788 3513 ft 223 kts 92°
2026-05-06 09:21 36.01048 -115.13998 3905 ft 201 kts 104°
2026-05-06 09:22 36.00849 -115.12326 4138 ft 196 kts 102°
2026-05-06 09:22 36.00625 -115.10619 4139 ft 206 kts 103°
2026-05-06 09:22 36.00567 -115.08849 4422 ft 201 kts 90°
2026-05-06 09:22 36.00894 -115.07150 4598 ft 201 kts 69°
2026-05-06 09:23 36.01797 -115.05898 4846 ft 197 kts 28°
2026-05-06 09:23 36.02930 -115.05080 4955 ft 187 kts 32°
2026-05-06 09:23 36.04076 -115.04324 4932 ft 183 kts 18°
2026-05-06 09:23 36.05292 -115.03920 4725 ft 181 kts 11°
2026-05-06 09:24 36.06497 -115.03511 4422 ft 181 kts 12°
2026-05-06 09:24 36.07717 -115.03070 4167 ft 177 kts 13°
2026-05-06 09:24 36.08859 -115.02929 4021 ft 151 kts 324°
2026-05-06 09:24 36.09192 -115.04014 3367 ft 151 kts 264°
2026-05-06 09:25 36.08894 -115.05109 3154 ft 131 kts 231°
2026-05-06 09:25 36.08361 -115.05942 3059 ft 112 kts 231°
2026-05-06 09:25 36.07973 -115.06723 2889 ft 105 kts 237°
2026-05-06 09:25 36.07665 -115.07491 2636 ft 95 kts 245°
2026-05-06 09:26 36.07558 -115.08286 2325 ft 100 kts 258°
2026-05-06 09:26 36.07470 -115.09306 2237 ft 128 kts 260°
2026-05-06 09:26 36.07420 -115.10461 2272 ft 141 kts 260°
2026-05-06 09:26 36.07373 -115.11691 2237 ft 149 kts 263°
2026-05-06 09:27 36.07369 -115.12864 2083 ft 126 kts 264°
2026-05-06 09:27 36.07368 -115.13833 2091 ft 98 kts 266°
2026-05-06 09:27 36.07361 -115.14540 2109 ft 70 kts 270°
2026-05-06 09:27 36.07448 -115.14986 2125 ft 40 kts 309°
2026-05-06 09:28 36.07598 -115.15173 2129 ft 25 kts 335°
2026-05-06 09:28 36.07733 -115.15250 2129 ft 18 kts 335°
2026-05-06 09:28 36.07816 -115.15299 2129 ft 8 kts 334°
2026-05-06 09:28 36.07870 -115.15334 2130 ft 8 kts 324°
2026-05-06 09:29 36.07920 -115.15359 2130 ft 7 kts 336°
2026-05-06 09:29 36.07961 -115.15383 2130 ft 7 kts 325°
2026-05-06 09:29 36.08024 -115.15414 2129 ft 13 kts 339°
2026-05-06 09:29 36.08130 -115.15466 2127 ft 17 kts 15°
2026-05-06 09:30 36.08247 -115.15369 2122 ft 21 kts 57°
2026-05-06 09:30 36.08258 -115.15344 2121 ft 0 kts 62°